SCP
-0 -0 -0 -0 0 0 -0 -0 -0 -0 -0 -0 -0 -0 -0 -0 -0 -0 -0 0 0 0 0 0 0 0 0 0 0 0 0 0 0 0 0 0 -0 -0 0 0 0 0 0
-0 -0 -0 -0 -0 -0 -0 -0 -0 -0 -0 -0 -0 -0 -0 -0 -0 -0 0 0 0 0 0 0 0 0 0 0 0 0 0 0 0 0 0 0 0 0 -0 -0 -0 0 0
-0 -0 -0 -0 -0 -0 -0 -0 -0 -0 -0 -0 -0 -0 -0 -0 0 0 0 0 0 0 0 0 0 0 0 0 0 0 0 0 0 0 0 0 0 0 0 -0 -0 0 0
-0 -0 -0 -0 -0 -0 -0 -0 -0 -0 -0 -0 -0 -0 0 0 0 0 0 0 0 0 0 0 0 0 0 0 0 0 0 0 0 0 0 0 0 0 0 0 0 0 0
-0 -0 -0 -0 -0 -0 -0 -0 -0 -0 -0 -0 0 0 0 0 0 0 0 0 0 0 0 0 0 0 0 0 0 0 0 0 0 0 0 0 0 0 0 0 0 0 0
-0 -0 -0 -0 -0 -0 -0 -0 -0 -0 -0 0 0 0 0 0 0 0 0 0 0 0 0 0 0 0 0 0 0 0 0 0 0 0 0 0 0 0 0 0 0 0 0
-0 0 -0 -0 -0 -0 -0 -0 0 0 0 0 0 0 0 0 0 0 0 0 0 0 0 0 0 0 0 0 0 0 0 0 0 0 0 0 0 0 0 0 0 0 0
-0 0 0 -0 -0 -0 0 0 0 0 0 0 0 0 0 0 0 0 0 0 0 0 0 0 0 0 0 0 0 0 0 0 0 0 0 0 0 0 0 0 1 1 1
-0 0 0 0 0 0 0 0 0 0 0 0 0 0 0 0 0 0 0 0 0 0 0 0 0 0 0 0 0 0 0 0 0 0 0 0 0 0 0 0 0 1 1
-0 -0 0 0 0 0 0 0 0 0 0 0 0 0 0 0 0 0 0 0 0 0 0 0 0 0 0 0 0 0 0 0 0 0 0 0 0 0 0 0 0 0 1
-0 0 -0 -0 -0 -0 -0 -0 -0 -0 0 0 0 0 0 0 0 0 0 0 0 0 0 0 0 0 0 0 0 0 0 0 0 0 0 0 0 0 0 0 0 0 0
0 -0 -0 -0 -0 -0 0 -0 0 0 0 0 0 0 0 0 0 0 0 0 0 0 0 0 0 0 0 0 0 0 0 0 0 0 0 0 0 0 0 0 0 0 0
0 0 0 0 -0 -0 -0 0 0 0 0 0 0 0 0 0 0 0 0 0 0 0 0 0 0 0 0 0 0 0 0 0 0 0 0 0 0 0 0 0 0 0 0
-0 0 -0 0 0 0 0 0 0 0 0 0 0 0 0 0 0 0 0 0 0 0 0 0 0 0 0 0 0 0 0 0 0 0 0 0 0 0 0 0 0 0 0
-0 -0 -0 -0 0 0 0 0 0 0 0 0 0 0 0 0 0 0 0 0 0 0 0 0 0 0 0 0 0 0 0 0 0 0 0 0 0 0 0 0 0 0 0
-0 -0 -0 -0 -0 0 0 0 0 0 0 0 0 0 0 0 0 0 0 0 0 0 0 0 0 0 0 0 0 0 0 0 0 0 0 0 0 0 0 0 0 0 0
-0 -0 -0 -0 0 0 0 0 0 0 0 0 0 0 0 0 0 0 0 0 0 0 0 0 0 0 0 0 0 0 0 0 0 0 0 0 0 0 0 0 0 0 0
-0 -0 0 -0 -0 0 0 0 0 0 0 0 0 0 0 0 0 0 0 0 0 0 0 0 0 0 0 0 0 0 0 0 0 0 0 0 0 0 0 0 0 0 0
-0 -0 0 0 0 0 0 0 0 0 0 0 0 0 0 0 0 0 0 0 0 0 0 0 0 0 0 0 0 0 0 0 0 0 0 0 0 0 0 0 0 0 0
-0 0 0 0 0 0 0 0 0 0 0 0 0 0 0 0 0 0 0 0 0 0 0 0 0 0 0 0 0 0 0 0 0 0 0 0 0 0 0 0 0 0 0
0 0 0 0 0 0 0 0 0 0 0 0 0 0 0 0 0 0 0 0 0 0 0 0 0 0 0 0 0 0 0 0 0 0 0 0 0 0 0 0 0 0 0
0 0 0 0 0 0 0 0 0 0 0 0 0 0 0 0 0 0 0 0 0 0 0 0 0 0 0 0 0 0 0 0 0 0 0 0 0 0 0 0 0 0 0
0 0 0 0 0 0 0 0 0 0 0 0 0 0 0 0 0 0 0 0 0 0 0 0 0 0 0 0 0 0 0 0 0 0 0 0 0 0 0 0 0 0 0
0 0 0 0 0 0 0 0 0 0 0 0 0 0 0 0 0 0 0 0 0 0 0 0 0 0 0 0 0 0 0 0 0 0 0 0 0 0 0 0 0 0 0
0 0 0 0 0 0 0 0 0 0 0 0 0 0 0 0 0 0 0 0 0 0 0 0 0 0 0 0 0 0 0 0 0 0 0 0 0 0 0 0 0 0 0
0 0 0 0 0 0 0 0 0 0 0 0 0 0 0 0 0 0 0 0 0 0 0 0 0 0 0 0 0 0 0 0 0 0 0 0 0 0 0 0 0 0 0
Wind_Speed_500mb
28 34 30 27 26 26 26 24 25 28 26 23 21 20 18 16 16 15 14 14 14 14 13 12 11 11 11 12 12 11 10 10 10 10 10 9 9 11 13 14 16 18 17
32 34 30 26 23 22 21 21 20 21 22 21 19 17 13 9 9 9 9 9 9 10 10 9 10 11 11 11 12 12 12 12 11 10 11 12 13 14 15 16 15 14 15
29 32 29 26 23 21 20 20 19 19 18 17 15 13 10 8 6 5 4 4 6 7 7 9 10 9 9 10 11 12 12 13 13 13 13 13 15 17 19 20 20 19 16
26 29 28 26 23 21 19 17 16 15 14 12 9 7 5 3 3 2 2 2 3 4 5 6 7 8 9 11 13 15 16 17 18 18 17 20 21 22 23 23 24 23 22
25 25 25 24 22 20 18 15 14 12 10 9 8 8 7 5 3 1 1 3 4 6 9 9 9 10 12 15 18 20 21 21 21 21 22 24 28 28 28 29 29 30 30
24 22 21 21 20 19 18 16 15 13 12 9 8 6 4 3 3 2 3 6 9 10 12 14 15 16 18 20 22 22 23 23 24 17 24 26 27 29 33 35 35 35 37
25 24 24 23 21 20 18 16 14 12 10 8 6 5 3 2 3 4 6 9 11 12 14 17 18 19 21 22 23 24 26 29 26 23 33 35 32 33 33 35 37 40 44
24 25 24 23 21 19 17 14 12 10 8 6 4 2 1 2 2 4 7 11 13 13 13 13 14 14 17 20 22 24 25 28 24 34 37 39 43 42 41 38 36 38 42
25 24 24 23 21 19 16 14 12 10 9 7 6 5 5 3 3 4 9 13 13 11 12 13 14 16 20 22 25 27 29 32 30 32 36 39 41 46 49 50 46 42 42
27 26 24 24 23 20 18 16 15 14 14 15 14 13 13 14 15 13 9 8 8 9 12 15 18 21 25 30 34 37 40 43 37 40 36 38 46 48 50 53 57 53 48
31 28 27 25 24 25 24 22 20 18 17 16 14 13 13 13 10 5 3 6 11 15 19 23 27 30 35 40 43 46 50 47 51 50 49 55 61 58 54 53 58 60 57
34 31 29 30 33 30 28 24 21 18 17 15 13 12 10 7 5 7 11 17 21 26 31 35 38 41 45 50 55 58 60 61 60 60 60 73 72 71 70 65 60 64 60
32 31 36 37 33 31 28 24 22 19 16 13 12 10 9 9 12 16 20 26 31 37 42 46 50 53 57 61 66 70 73 75 67 64 64 84 82 81 80 77 72 68 69
35 36 37 38 35 33 30 26 23 19 16 14 14 13 14 18 22 26 31 37 44 51 57 62 66 70 72 76 79 82 84 85 81 83 88 96 97 93 92 88 81 75 76
42 42 42 41 40 37 33 29 24 19 19 19 18 21 23 27 32 37 42 48 55 62 68 73 76 79 81 84 87 89 91 92 95 98 102 106 108 102 93 87 83 80 78
47 45 46 41 42 39 35 29 26 25 25 26 27 29 33 37 42 47 52 59 66 70 73 76 78 81 85 89 93 94 96 98 100 102 101 99 103 103 98 90 83 75 69
52 48 51 47 45 40 35 33 31 32 33 33 33 35 39 45 50 55 60 63 64 66 69 74 78 83 87 90 94 96 96 95 93 89 87 82 74 78 82 80 75 69 62
61 57 50 52 48 44 39 37 37 38 38 36 36 38 45 48 49 51 56 62 68 72 77 80 83 88 89 89 87 85 82 80 78 75 68 60 54 53 55 62 64 66 60
68 65 60 57 54 49 47 46 43 41 39 37 37 39 41 44 49 56 63 69 75 78 79 82 83 82 80 75 69 62 60 61 59 47 46 48 45 43 40 41 48 51 51
76 75 67 63 57 56 58 50 44 39 36 34 35 37 44 53 61 65 67 72 74 75 74 74 75 71 67 58 54 55 49 47 37 35 37 40 32 31 35 38 39 39 49
72 76 74 65 62 50 49 44 39 35 31 32 35 43 49 63 65 68 69 72 72 72 71 68 64 55 46 46 51 48 47 27 34 19 34 42 43 42 45 43 41 41 43
70 71 70 62 51 48 43 39 32 26 30 37 44 55 66 64 65 66 68 69 68 67 63 57 54 55 50 47 45 51 27 39 10 45 44 40 36 42 37 39 39 35 36
70 68 64 57 49 46 37 27 20 23 33 42 53 64 60 60 61 62 62 63 62 58 53 53 50 47 50 47 38 32 19 13 54 18 65 47 44 46 45 41 43 44 45
55 54 51 53 51 41 31 18 13 25 41 59 62 57 56 56 55 56 57 56 55 54 46 46 43 43 43 49 48 47 46 53 38 32 46 64 50 40 46 44 45 44 44
40 42 42 42 39 29 15 14 25 47 80 58 53 48 47 46 47 49 49 49 50 50 46 44 44 44 43 46 47 50 53 56 58 49 53 70 63 50 50 56 50 50 42
36 35 32 29 25 18 17 28 59 60 40 42 42 43 42 40 43 43 44 45 49 48 49 46 43 43 44 44 46 48 48 50 59 57 59 71 76 68 55 47 52 41 34
Wind_Direction_500mb
162 155 149 137 133 131 133 132 131 136 142 143 138 131 126 117 104 97 92 79 67 61 57 54 52 47 44 39 34 30 27 23 18 13 6 352 349 356 2 7 11 12 11
160 156 152 141 134 131 130 130 131 131 136 142 143 140 140 126 103 84 70 60 52 47 45 43 40 35 31 22 14 8 4 0 357 349 340 331 323 320 319 321 324 333 342
157 155 156 150 143 141 144 144 144 142 142 143 145 147 141 124 111 103 90 67 45 33 23 23 26 21 15 5 355 349 346 342 337 332 324 317 303 301 301 300 296 299 300
156 158 158 155 154 154 156 156 151 148 148 145 141 134 125 133 159 147 99 58 31 6 354 359 356 350 344 336 329 327 325 322 318 315 315 308 302 298 293 288 278 276 284
159 156 156 154 154 156 156 156 150 144 141 142 151 160 170 182 173 193 299 331 332 332 331 333 338 335 335 334 331 327 321 316 312 311 305 301 298 296 290 285 283 272 268
156 149 146 142 145 149 151 152 148 145 147 147 140 144 154 170 190 236 305 335 348 351 345 340 341 343 339 335 331 327 325 325 324 321 314 309 305 295 290 284 276 271 266
159 156 152 146 146 147 146 145 142 141 144 147 158 173 197 244 285 319 0 10 8 356 344 337 336 336 335 335 333 329 325 321 321 315 315 311 307 301 294 288 281 273 269
165 164 160 155 151 148 147 149 151 157 158 158 162 148 100 45 43 35 7 352 353 359 10 11 7 5 360 352 347 339 331 326 324 316 313 309 297 292 289 288 286 278 269
166 166 164 161 157 155 151 153 148 146 136 131 109 93 80 69 68 48 63 64 52 33 19 5 349 339 335 331 329 326 322 318 314 313 312 312 305 295 286 279 277 277 276
169 167 166 160 155 151 149 142 135 129 121 112 106 97 90 91 93 93 72 40 17 357 336 327 320 314 311 310 312 312 310 308 306 304 304 302 307 303 298 283 274 271 270
172 166 161 159 155 151 144 138 135 128 123 120 111 105 105 110 111 92 9 324 314 307 306 304 304 306 306 305 304 304 305 301 302 300 300 299 307 304 300 295 280 271 267
175 162 169 166 156 149 151 149 145 147 148 140 135 133 134 154 194 235 264 281 291 297 300 301 301 302 302 301 301 300 298 297 296 295 295 298 302 301 300 297 288 275 272
172 167 166 162 162 163 163 166 166 166 168 164 162 170 191 223 250 268 281 287 293 297 299 299 298 297 297 297 297 296 295 295 293 292 290 293 295 295 294 292 290 280 272
187 177 175 174 176 177 179 180 179 181 186 190 205 223 244 261 273 282 289 294 298 300 301 301 300 299 297 296 295 294 292 290 290 289 290 291 292 291 290 287 284 277 272
197 191 191 191 189 190 188 192 193 198 207 219 232 248 262 274 282 287 292 297 299 300 298 296 294 292 290 289 289 288 288 287 286 286 287 288 290 289 287 284 279 274 271
208 204 203 204 206 204 199 200 206 215 226 235 246 259 271 279 287 290 292 293 294 293 292 291 291 290 290 290 289 288 287 287 287 288 287 287 286 286 284 281 275 272 269
217 216 216 215 214 216 215 214 220 229 238 247 256 266 274 279 282 286 287 290 292 292 290 289 290 291 292 292 293 294 295 296 295 293 292 288 285 282 280 278 274 270 265
225 225 225 225 226 222 226 231 234 239 245 253 262 270 277 281 286 291 294 295 296 297 298 299 299 300 301 302 302 301 300 300 302 300 296 291 286 283 278 278 274 268 267
232 234 231 232 234 232 231 238 240 241 247 255 266 274 282 290 297 300 299 300 301 302 302 303 304 306 307 307 306 307 307 309 310 308 306 300 293 289 284 281 278 275 265
238 241 240 239 241 239 237 237 236 243 252 265 273 285 294 306 305 302 304 305 306 307 309 310 310 311 312 312 311 311 312 311 314 317 331 322 308 303 294 282 283 283 276
243 244 246 242 241 238 226 224 232 243 258 274 292 301 307 310 306 308 310 311 313 314 314 314 316 317 316 316 316 314 318 311 308 306 320 304 299 300 293 286 287 283 278
245 246 244 238 227 221 219 227 232 249 272 286 294 311 313 311 310 314 317 317 318 319 320 320 321 320 316 321 315 319 320 324 282 312 324 314 302 304 297 293 290 286 284
242 242 240 225 218 216 217 221 236 264 278 293 303 309 309 314 318 320 324 326 327 329 325 326 328 331 330 332 325 307 313 287 310 326 324 316 304 304 298 298 297 296 293
235 233 231 220 217 211 205 201 242 283 311 311 310 310 315 319 324 329 333 336 337 333 329 337 341 338 332 327 330 326 308 300 299 304 309 317 313 309 301 298 294 292 295
214 207 202 200 192 190 193 253 283 313 309 300 305 312 318 324 331 337 341 342 341 340 341 341 340 336 332 328 325 321 317 315 311 291 294 310 312 307 298 303 299 301 296
155 157 161 169 172 190 232 275 272 282 286 302 311 319 325 334 339 347 349 346 348 353 351 347 345 345 341 334 330 324 321 314 311 303 293 302 309 317 307 301 303 309 293
Wind_Speed_850mb
28 34 30 27 26 26 26 24 25 28 26 23 21 20 18 16 16 15 14 14 14 14 13 12 11 11 11 12 12 11 10 10 10 10 10 9 9 11 13 14 16 18 17
32 34 30 26 23 22 21 21 20 21 22 21 19 17 13 9 9 9 9 9 9 10 10 9 10 11 11 11 12 12 12 12 11 10 11 12 13 14 15 16 15 14 15
29 32 29 26 23 21 20 20 19 19 18 17 15 13 10 8 6 5 4 4 6 7 7 9 10 9 9 10 11 12 12 13 13 13 13 13 15 17 19 20 20 19 16
26 29 28 26 23 21 19 17 16 15 14 12 9 7 5 3 3 2 2 2 3 4 5 6 7 8 9 11 13 15 16 17 18 18 17 20 21 22 23 23 24 23 22
25 25 25 24 22 20 18 15 14 12 10 9 8 8 7 5 3 1 1 3 4 6 9 9 9 10 12 15 18 20 21 21 21 21 22 24 28 28 28 29 29 30 30
24 22 21 21 20 19 18 16 15 13 12 9 8 6 4 3 3 2 3 6 9 10 12 14 15 16 18 20 22 22 23 23 24 17 24 26 27 29 33 35 35 35 37
25 24 24 23 21 20 18 16 14 12 10 8 6 5 3 2 3 4 6 9 11 12 14 17 18 19 21 22 23 24 26 29 26 23 33 35 32 33 33 35 37 40 44
24 25 24 23 21 19 17 14 12 10 8 6 4 2 1 2 2 4 7 11 13 13 13 13 14 14 17 20 22 24 25 28 24 34 37 39 43 42 41 38 36 38 42
25 24 24 23 21 19 16 14 12 10 9 7 6 5 5 3 3 4 9 13 13 11 12 13 14 16 20 22 25 27 29 32 30 32 36 39 41 46 49 50 46 42 42
27 26 24 24 23 20 18 16 15 14 14 15 14 13 13 14 15 13 9 8 8 9 12 15 18 21 25 30 34 37 40 43 37 40 36 38 46 48 50 53 57 53 48
31 28 27 25 24 25 24 22 20 18 17 16 14 13 13 13 10 5 3 6 11 15 19 23 27 30 35 40 43 46 50 47 51 50 49 55 61 58 54 53 58 60 57
34 31 29 30 33 30 28 24 21 18 17 15 13 12 10 7 5 7 11 17 21 26 31 35 38 41 45 50 55 58 60 61 60 60 60 73 72 71 70 65 60 64 60
32 31 36 37 33 31 28 24 22 19 16 13 12 10 9 9 12 16 20 26 31 37 42 46 50 53 57 61 66 70 73 75 67 64 64 84 82 81 80 77 72 68 69
35 36 37 38 35 33 30 26 23 19 16 14 14 13 14 18 22 26 31 37 44 51 57 62 66 70 72 76 79 82 84 85 81 83 88 96 97 93 92 88 81 75 76
42 42 42 41 40 37 33 29 24 19 19 19 18 21 23 27 32 37 42 48 55 62 68 73 76 79 81 84 87 89 91 92 95 98 102 106 108 102 93 87 83 80 78
47 45 46 41 42 39 35 29 26 25 25 26 27 29 33 37 42 47 52 59 66 70 73 76 78 81 85 89 93 94 96 98 100 102 101 99 103 103 98 90 83 75 69
52 48 51 47 45 40 35 33 31 32 33 33 33 35 39 45 50 55 60 63 64 66 69 74 78 83 87 90 94 96 96 95 93 89 87 82 74 78 82 80 75 69 62
61 57 50 52 48 44 39 37 37 38 38 36 36 38 45 48 49 51 56 62 68 72 77 80 83 88 89 89 87 85 82 80 78 75 68 60 54 53 55 62 64 66 60
68 65 60 57 54 49 47 46 43 41 39 37 37 39 41 44 49 56 63 69 75 78 79 82 83 82 80 75 69 62 60 61 59 47 46 48 45 43 40 41 48 51 51
76 75 67 63 57 56 58 50 44 39 36 34 35 37 44 53 61 65 67 72 74 75 74 74 75 71 67 58 54 55 49 47 37 35 37 40 32 31 35 38 39 39 49
72 76 74 65 62 50 49 44 39 35 31 32 35 43 49 63 65 68 69 72 72 72 71 68 64 55 46 46 51 48 47 27 34 19 34 42 43 42 45 43 41 41 43
70 71 70 62 51 48 43 39 32 26 30 37 44 55 66 64 65 66 68 69 68 67 63 57 54 55 50 47 45 51 27 39 10 45 44 40 36 42 37 39 39 35 36
70 68 64 57 49 46 37 27 20 23 33 42 53 64 60 60 61 62 62 63 62 58 53 53 50 47 50 47 38 32 19 13 54 18 65 47 44 46 45 41 43 44 45
55 54 51 53 51 41 31 18 13 25 41 59 62 57 56 56 55 56 57 56 55 54 46 46 43 43 43 49 48 47 46 53 38 32 46 64 50 40 46 44 45 44 44
40 42 42 42 39 29 15 14 25 47 80 58 53 48 47 46 47 49 49 49 50 50 46 44 44 44 43 46 47 50 53 56 58 49 53 70 63 50 50 56 50 50 42
36 35 32 29 25 18 17 28 59 60 40 42 42 43 42 40 43 43 44 45 49 48 49 46 43 43 44 44 46 48 48 50 59 57 59 71 76 68 55 47 52 41 34
Wind_Direction_850mb
162 155 149 137 133 131 133 132 131 136 142 143 138 131 126 117 104 97 92 79 67 61 57 54 52 47 44 39 34 30 27 23 18 13 6 352 349 356 2 7 11 12 11
160 156 152 141 134 131 130 130 131 131 136 142 143 140 140 126 103 84 70 60 52 47 45 43 40 35 31 22 14 8 4 0 357 349 340 331 323 320 319 321 324 333 342
157 155 156 150 143 141 144 144 144 142 142 143 145 147 141 124 111 103 90 67 45 33 23 23 26 21 15 5 355 349 346 342 337 332 324 317 303 301 301 300 296 299 300
156 158 158 155 154 154 156 156 151 148 148 145 141 134 125 133 159 147 99 58 31 6 354 359 356 350 344 336 329 327 325 322 318 315 315 308 302 298 293 288 278 276 284
159 156 156 154 154 156 156 156 150 144 141 142 151 160 170 182 173 193 299 331 332 332 331 333 338 335 335 334 331 327 321 316 312 311 305 301 298 296 290 285 283 272 268
156 149 146 142 145 149 151 152 148 145 147 147 140 144 154 170 190 236 305 335 348 351 345 340 341 343 339 335 331 327 325 325 324 321 314 309 305 295 290 284 276 271 266
159 156 152 146 146 147 146 145 142 141 144 147 158 173 197 244 285 319 0 10 8 356 344 337 336 336 335 335 333 329 325 321 321 315 315 311 307 301 294 288 281 273 269
165 164 160 155 151 148 147 149 151 157 158 158 162 148 100 45 43 35 7 352 353 359 10 11 7 5 360 352 347 339 331 326 324 316 313 309 297 292 289 288 286 278 269
166 166 164 161 157 155 151 153 148 146 136 131 109 93 80 69 68 48 63 64 52 33 19 5 349 339 335 331 329 326 322 318 314 313 312 312 305 295 286 279 277 277 276
169 167 166 160 155 151 149 142 135 129 121 112 106 97 90 91 93 93 72 40 17 357 336 327 320 314 311 310 312 312 310 308 306 304 304 302 307 303 298 283 274 271 270
172 166 161 159 155 151 144 138 135 128 123 120 111 105 105 110 111 92 9 324 314 307 306 304 304 306 306 305 304 304 305 301 302 300 300 299 307 304 300 295 280 271 267
175 162 169 166 156 149 151 149 145 147 148 140 135 133 134 154 194 235 264 281 291 297 300 301 301 302 302 301 301 300 298 297 296 295 295 298 302 301 300 297 288 275 272
172 167 166 162 162 163 163 166 166 166 168 164 162 170 191 223 250 268 281 287 293 297 299 299 298 297 297 297 297 296 295 295 293 292 290 293 295 295 294 292 290 280 272
187 177 175 174 176 177 179 180 179 181 186 190 205 223 244 261 273 282 289 294 298 300 301 301 300 299 297 296 295 294 292 290 290 289 290 291 292 291 290 287 284 277 272
197 191 191 191 189 190 188 192 193 198 207 219 232 248 262 274 282 287 292 297 299 300 298 296 294 292 290 289 289 288 288 287 286 286 287 288 290 289 287 284 279 274 271
208 204 203 204 206 204 199 200 206 215 226 235 246 259 271 279 287 290 292 293 294 293 292 291 291 290 290 290 289 288 287 287 287 288 287 287 286 286 284 281 275 272 269
217 216 216 215 214 216 215 214 220 229 238 247 256 266 274 279 282 286 287 290 292 292 290 289 290 291 292 292 293 294 295 296 295 293 292 288 285 282 280 278 274 270 265
225 225 225 225 226 222 226 231 234 239 245 253 262 270 277 281 286 291 294 295 296 297 298 299 299 300 301 302 302 301 300 300 302 300 296 291 286 283 278 278 274 268 267
232 234 231 232 234 232 231 238 240 241 247 255 266 274 282 290 297 300 299 300 301 302 302 303 304 306 307 307 306 307 307 309 310 308 306 300 293 289 284 281 278 275 265
238 241 240 239 241 239 237 237 236 243 252 265 273 285 294 306 305 302 304 305 306 307 309 310 310 311 312 312 311 311 312 311 314 317 331 322 308 303 294 282 283 283 276
243 244 246 242 241 238 226 224 232 243 258 274 292 301 307 310 306 308 310 311 313 314 314 314 316 317 316 316 316 314 318 311 308 306 320 304 299 300 293 286 287 283 278
245 246 244 238 227 221 219 227 232 249 272 286 294 311 313 311 310 314 317 317 318 319 320 320 321 320 316 321 315 319 320 324 282 312 324 314 302 304 297 293 290 286 284
242 242 240 225 218 216 217 221 236 264 278 293 303 309 309 314 318 320 324 326 327 329 325 326 328 331 330 332 325 307 313 287 310 326 324 316 304 304 298 298 297 296 293
235 233 231 220 217 211 205 201 242 283 311 311 310 310 315 319 324 329 333 336 337 333 329 337 341 338 332 327 330 326 308 300 299 304 309 317 313 309 301 298 294 292 295
214 207 202 200 192 190 193 253 283 313 309 300 305 312 318 324 331 337 341 342 341 340 341 341 340 336 332 328 325 321 317 315 311 291 294 310 312 307 298 303 299 301 296
155 157 161 169 172 190 232 275 272 282 286 302 311 319 325 334 339 347 349 346 348 353 351 347 345 345 341 334 330 324 321 314 311 303 293 302 309 317 307 301 303 309 293